| time (UTC) | temp C | wind direction | speed KPH | gust KPH | rain 1hr cm | rain 24hr cm | rain mn cm | humidity % | barometer mb |
| 20260507095403 | 12 | 267 | 0.0 | 4.8 | 0.00 | 0.00 | 0.00 | 78 | 1018.6 |
| 20260507094503 | 12 | 266 | 1.6 | 4.8 | 0.00 | 0.00 | 0.00 | 78 | 1018.6 |
| 20260507093603 | 12 | 263 | 1.6 | 6.4 | 0.00 | 0.00 | 0.00 | 78 | 1018.7 |
| 20260507092913 | 12 | 262 | 1.6 | 6.4 | 0.00 | 0.00 | 0.00 | 78 | 1018.7 |
| 20260507091803 | 12 | 270 | 1.6 | 11.3 | 0.00 | 0.00 | 0.00 | 78 | 1018.9 |
| 20260507090903 | 12 | 279 | 1.6 | 3.2 | 0.00 | 0.00 | 0.00 | 78 | 1019.1 |
| 20260507090213 | 12 | 278 | 1.6 | 9.7 | 0.00 | 0.00 | 0.00 | 79 | 1019.1 |
| 20260507085403 | 12 | 275 | 1.6 | 4.8 | 0.00 | 0.00 | 0.00 | 78 | 1019.1 |
| 20260507084714 | 12 | 275 | 1.6 | 9.7 | 0.00 | 0.00 | 0.00 | 80 | 1019.0 |
| 20260507083603 | 12 | 276 | 1.6 | 4.8 | 0.00 | 0.00 | 0.00 | 80 | 1018.9 |
| 20260507082703 | 12 | 270 | 1.6 | 4.8 | 0.00 | 0.00 | 0.00 | 80 | 1019.0 |
| 20260507081803 | 12 | 273 | 1.6 | 4.8 | 0.00 | 0.00 | 0.00 | 80 | 1019.0 |
| 20260507080903 | 12 | 335 | 1.6 | 6.4 | 0.00 | 0.00 | 0.00 | 81 | 1019.0 |
| 20260507080213 | 12 | 344 | 1.6 | 6.4 | 0.00 | 0.00 | 0.00 | 81 | 1019.0 |
| 20260507075403 | 12 | 320 | 1.6 | 6.4 | 0.00 | 0.00 | 0.00 | 82 | 1019.0 |
| 20260507074503 | 12 | 321 | 1.6 | 9.7 | 0.00 | 0.00 | 0.00 | 82 | 1019.0 |
| 20260507073603 | 12 | 341 | 1.6 | 8.0 | 0.00 | 0.00 | 0.00 | 82 | 1019.0 |
| 20260507072914 | 12 | 340 | 3.2 | 4.8 | 0.00 | 0.00 | 0.00 | 82 | 1018.9 |
| 20260507071803 | 12 | 343 | 3.2 | 8.0 | 0.00 | 0.00 | 0.00 | 82 | 1018.9 |
| 20260507071113 | 12 | 329 | 1.6 | 6.4 | 0.00 | 0.00 | 0.00 | 83 | 1018.8 |
| 20260507070006 | 12 | 60 | 0.0 | 4.8 | 0.00 | 0.00 | 0.00 | 83 | 1018.8 |
| 20260507065403 | 12 | 60 | 0.0 | 4.8 | 0.00 | 0.00 | 0.00 | 84 | 1018.7 |
| 20260507064504 | 12 | 0 | 1.6 | 0.0 | 0.00 | 0.00 | 0.00 | 83 | 1018.8 |
| 20260507063603 | 12 | 62 | 3.2 | 6.4 | 0.00 | 0.00 | 0.00 | 83 | 1018.8 |
| 20260507062703 | 12 | 56 | 3.2 | 9.7 | 0.00 | 0.00 | 0.00 | 83 | 1018.8 |
| 20260507061803 | 12 | 63 | 4.8 | 9.7 | 0.00 | 0.00 | 0.00 | 83 | 1018.9 |
| 20260507060903 | 12 | 66 | 4.8 | 11.3 | 0.00 | 0.00 | 0.00 | 83 | 1018.9 |
| 20260507060003 | 12 | 57 | 3.2 | 9.7 | 0.00 | 0.00 | 0.00 | 83 | 1018.9 |
| 20260507055613 | 13 | 57 | 3.2 | 8.0 | 0.00 | 0.00 | 0.00 | 83 | 1018.9 |
| 20260507054503 | 13 | 0 | 0.0 | 0.0 | 0.00 | 0.00 | 0.00 | 81 | 1018.8 |
| 20260507053603 | 13 | 0 | 0.0 | 0.0 | 0.00 | 0.00 | 0.00 | 80 | 1018.8 |
| 20260507052703 | 13 | 0 | 0.0 | 0.0 | 0.00 | 0.00 | 0.00 | 80 | 1018.7 |
| 20260507051803 | 13 | 49 | 0.0 | 3.2 | 0.00 | 0.00 | 0.00 | 81 | 1018.7 |
| 20260507050903 | 13 | 52 | 0.0 | 3.2 | 0.00 | 0.00 | 0.00 | 80 | 1018.7 |
| 20260507050003 | 13 | 52 | 0.0 | 3.2 | 0.00 | 0.00 | 0.00 | 80 | 1018.7 |
| 20260507045403 | 14 | 32 | 1.6 | 3.2 | 0.00 | 0.00 | 0.00 | 80 | 1018.7 |
| 20260507044503 | 14 | 342 | 1.6 | 6.4 | 0.00 | 0.00 | 0.00 | 80 | 1018.7 |
| 20260507043603 | 14 | 358 | 3.2 | 8.0 | 0.00 | 0.00 | 0.00 | 80 | 1018.7 |
| 20260507042703 | 14 | 336 | 4.8 | 11.3 | 0.00 | 0.00 | 0.00 | 79 | 1018.6 |
| 20260507041803 | 14 | 341 | 4.8 | 11.3 | 0.00 | 0.00 | 0.00 | 79 | 1018.5 |
| 20260507041114 | 14 | 349 | 4.8 | 11.3 | 0.00 | 0.00 | 0.00 | 79 | 1018.5 |
| 20260507040003 | 15 | 338 | 4.8 | 9.7 | 0.00 | 0.00 | 0.00 | 78 | 1018.3 |
| 20260507035613 | 15 | 332 | 4.8 | 11.3 | 0.00 | 0.00 | 0.00 | 78 | 1018.2 |
| 20260507034714 | 15 | 333 | 3.2 | 11.3 | 0.00 | 0.00 | 0.00 | 78 | 1018.2 |
| 20260507033603 | 15 | 350 | 4.8 | 9.7 | 0.00 | 0.00 | 0.00 | 78 | 1018.0 |
| 20260507032913 | 15 | 351 | 3.2 | 12.9 | 0.00 | 0.00 | 0.00 | 77 | 1017.9 |
| 20260507031803 | 16 | 324 | 3.2 | 6.4 | 0.00 | 0.00 | 0.00 | 77 | 1017.8 |
| 20260507031113 | 16 | 348 | 3.2 | 8.0 | 0.00 | 0.00 | 0.00 | 77 | 1017.6 |
| 20260507030213 | 16 | 344 | 1.6 | 11.3 | 0.00 | 0.00 | 0.00 | 76 | 1017.6 |
| 20260507025614 | 16 | 339 | 1.6 | 9.7 | 0.00 | 0.00 | 0.00 | 76 | 1017.5 |
| 20260507024503 | 17 | 338 | 1.6 | 8.0 | 0.00 | 0.00 | 0.00 | 76 | 1017.4 |
| 20260507023603 | 17 | 356 | 1.6 | 6.4 | 0.00 | 0.00 | 0.00 | 75 | 1017.2 |
| 20260507022703 | 17 | 319 | 1.6 | 11.3 | 0.00 | 0.00 | 0.00 | 74 | 1017.2 |
| 20260507021803 | 17 | 335 | 3.2 | 4.8 | 0.00 | 0.00 | 0.00 | 75 | 1017.2 |
| 20260507021113 | 17 | 322 | 1.6 | 6.4 | 0.00 | 0.00 | 0.00 | 74 | 1017.1 |
| 20260507020003 | 17 | 329 | 3.2 | 8.0 | 0.00 | 0.00 | 0.00 | 74 | 1017.2 |
| 20260507015614 | 17 | 333 | 3.2 | 8.0 | 0.00 | 0.00 | 0.00 | 73 | 1017.2 |
| 20260507014503 | 18 | 320 | 3.2 | 11.3 | 0.00 | 0.00 | 0.00 | 71 | 1017.3 |
| 20260507013603 | 18 | 347 | 3.2 | 9.7 | 0.00 | 0.00 | 0.00 | 71 | 1017.3 |
| 20260507012703 | 19 | 341 | 3.2 | 12.9 | 0.00 | 0.00 | 0.00 | 71 | 1017.2 |
| 20260507011803 | 20 | 323 | 4.8 | 9.7 | 0.00 | 0.00 | 0.00 | 72 | 1017.2 |
| 20260507010214 | 20 | 7 | 3.2 | 9.7 | 0.00 | 0.00 | 0.00 | 70 | 1017.1 |
| 20260507005403 | 20 | 5 | 3.2 | 12.9 | 0.00 | 0.00 | 0.00 | 74 | 1017.1 |
| 20260507004503 | 20 | 68 | 4.8 | 12.9 | 0.00 | 0.00 | 0.00 | 73 | 1017.1 |
| 20260507003603 | 20 | 69 | 4.8 | 11.3 | 0.00 | 0.00 | 0.00 | 71 | 1017.1 |
| 20260507002914 | 20 | 39 | 4.8 | 11.3 | 0.00 | 0.00 | 0.00 | 71 | 1017.0 |
| 20260507001803 | 20 | 63 | 1.6 | 9.7 | 0.00 | 0.00 | 0.00 | 70 | 1017.0 |
| 20260507000903 | 20 | 49 | 1.6 | 6.4 | 0.00 | 0.00 | 0.00 | 71 | 1017.0 |
| 20260507000003 | 20 | 39 | 3.2 | 3.2 | 0.00 | 0.00 | 0.00 | 70 | 1017.0 |
| 20260506235403 | 21 | 40 | 3.2 | 6.4 | 0.00 | 0.00 | 0.00 | 69 | 1016.9 |
| 20260506234503 | 21 | 49 | 3.2 | 6.4 | 0.00 | 0.00 | 0.00 | 69 | 1016.9 |
| 20260506233814 | 21 | 56 | 3.2 | 6.4 | 0.00 | 0.00 | 0.00 | 69 | 1016.9 |
| 20260506232703 | 21 | 62 | 3.2 | 9.7 | 0.00 | 0.00 | 0.00 | 68 | 1016.9 |
| 20260506231803 | 20 | 63 | 4.8 | 6.4 | 0.00 | 0.00 | 0.00 | 69 | 1017.0 |
| 20260506231114 | 21 | 62 | 6.4 | 12.9 | 0.00 | 0.00 | 0.00 | 68 | 1017.0 |
| 20260506230003 | 21 | 64 | 3.2 | 14.5 | 0.00 | 0.00 | 0.00 | 68 | 1017.2 |
| 20260506225403 | 21 | 86 | 1.6 | 11.3 | 0.00 | 0.00 | 0.00 | 69 | 1017.2 |
| 20260506224714 | 21 | 125 | 1.6 | 3.2 | 0.00 | 0.00 | 0.00 | 67 | 1017.3 |
| 20260506223603 | 21 | 51 | 3.2 | 11.3 | 0.00 | 0.00 | 0.00 | 68 | 1017.4 |
| 20260506222703 | 21 | 36 | 4.8 | 11.3 | 0.00 | 0.00 | 0.00 | 68 | 1017.4 |
| 20260506221803 | 21 | 62 | 4.8 | 12.9 | 0.00 | 0.00 | 0.00 | 69 | 1017.5 |
| 20260506220903 | 20 | 69 | 6.4 | 11.3 | 0.00 | 0.00 | 0.00 | 68 | 1017.6 |
| 20260506220003 | 20 | 77 | 4.8 | 11.3 | 0.00 | 0.00 | 0.00 | 72 | 1017.6 |
| 20260506215403 | 20 | 68 | 3.2 | 11.3 | 0.00 | 0.00 | 0.00 | 70 | 1017.6 |
| 20260506214503 | 20 | 84 | 1.6 | 11.3 | 0.00 | 0.00 | 0.00 | 72 | 1017.5 |
| 20260506213813 | 20 | 146 | 3.2 | 11.3 | 0.00 | 0.00 | 0.00 | 72 | 1017.5 |
| 20260506212703 | 19 | 174 | 3.2 | 12.9 | 0.00 | 0.00 | 0.00 | 75 | 1017.7 |
| 20260506211803 | 18 | 92 | 3.2 | 8.0 | 0.00 | 0.00 | 0.00 | 74 | 1017.8 |
| 20260506211113 | 18 | 200 | 4.8 | 14.5 | 0.00 | 0.00 | 0.00 | 75 | 1018.0 |
| 20260506210004 | 18 | 81 | 3.2 | 11.3 | 0.00 | 0.00 | 0.00 | 73 | 1018.1 |
| 20260506205403 | 19 | 72 | 3.2 | 9.7 | 0.00 | 0.00 | 0.00 | 74 | 1018.1 |
| 20260506204503 | 18 | 189 | 3.2 | 11.3 | 0.00 | 0.00 | 0.00 | 78 | 1018.1 |
| 20260506203603 | 18 | 185 | 3.2 | 11.3 | 0.00 | 0.00 | 0.00 | 78 | 1018.0 |
| 20260506202703 | 18 | 188 | 3.2 | 8.0 | 0.00 | 0.00 | 0.00 | 77 | 1017.9 |
| 20260506201803 | 18 | 182 | 4.8 | 14.5 | 0.00 | 0.00 | 0.00 | 78 | 1018.0 |
| 20260506200903 | 18 | 146 | 3.2 | 9.7 | 0.00 | 0.00 | 0.00 | 76 | 1018.1 |
| 20260506200003 | 17 | 180 | 1.6 | 14.5 | 0.00 | 0.00 | 0.00 | 77 | 1018.1 |
| 20260506195403 | 17 | 175 | 1.6 | 4.8 | 0.00 | 0.00 | 0.00 | 78 | 1018.2 |
| 20260506194503 | 17 | 180 | 1.6 | 4.8 | 0.00 | 0.00 | 0.00 | 78 | 1018.4 |
| 20260506193603 | 17 | 175 | 1.6 | 6.4 | 0.00 | 0.00 | 0.00 | 79 | 1018.5 |
| 20260506192703 | 17 | 169 | 1.6 | 11.3 | 0.00 | 0.00 | 0.00 | 80 | 1018.5 |
| 20260506191803 | 17 | 62 | 3.2 | 9.7 | 0.00 | 0.00 | 0.00 | 79 | 1018.4 |
| 20260506190903 | 16 | 71 | 3.2 | 9.7 | 0.00 | 0.00 | 0.00 | 80 | 1018.3 |
| 20260506190003 | 16 | 131 | 3.2 | 8.0 | 0.00 | 0.00 | 0.00 | 81 | 1018.3 |
| 20260506185613 | 16 | 152 | 4.8 | 8.0 | 0.00 | 0.00 | 0.00 | 81 | 1018.3 |
| 20260506184503 | 16 | 207 | 4.8 | 12.9 | 0.00 | 0.00 | 0.00 | 80 | 1018.3 |
| 20260506183814 | 16 | 187 | 6.4 | 12.9 | 0.00 | 0.00 | 0.00 | 80 | 1018.2 |
| 20260506182704 | 16 | 196 | 8.0 | 14.5 | 0.00 | 0.00 | 0.00 | 81 | 1018.3 |
| 20260506181803 | 16 | 192 | 6.4 | 19.3 | 0.00 | 0.00 | 0.00 | 82 | 1018.4 |
| 20260506181114 | 15 | 200 | 4.8 | 16.1 | 0.00 | 0.00 | 0.00 | 82 | 1018.4 |
| 20260506180004 | 15 | 183 | 6.4 | 14.5 | 0.00 | 0.00 | 0.00 | 83 | 1018.4 |
| 20260506175403 | 15 | 193 | 6.4 | 16.1 | 0.00 | 0.00 | 0.00 | 83 | 1018.3 |
| 20260506174503 | 15 | 187 | 4.8 | 16.1 | 0.00 | 0.00 | 0.00 | 83 | 1018.4 |
| 20260506173814 | 15 | 192 | 6.4 | 11.3 | 0.00 | 0.00 | 0.00 | 83 | 1018.4 |
| 20260506172703 | 15 | 184 | 6.4 | 12.9 | 0.00 | 0.00 | 0.00 | 84 | 1018.2 |
| 20260506171803 | 15 | 184 | 4.8 | 11.3 | 0.00 | 0.00 | 0.00 | 85 | 1018.1 |
| 20260506171114 | 14 | 184 | 4.8 | 8.0 | 0.00 | 0.00 | 0.00 | 85 | 1018.1 |
| 20260506170004 | 14 | 185 | 1.6 | 8.0 | 0.00 | 0.00 | 0.00 | 85 | 1018.2 |
| 20260506165403 | 14 | 192 | 1.6 | 6.4 | 0.00 | 0.00 | 0.00 | 86 | 1018.2 |
| 20260506164503 | 14 | 192 | 4.8 | 6.4 | 0.00 | 0.00 | 0.00 | 86 | 1018.3 |
| 20260506163603 | 14 | 185 | 3.2 | 9.7 | 0.00 | 0.00 | 0.00 | 86 | 1018.2 |
| 20260506162703 | 14 | 210 | 3.2 | 8.0 | 0.00 | 0.00 | 0.00 | 86 | 1018.2 |
| 20260506161803 | 14 | 186 | 3.2 | 8.0 | 0.00 | 0.00 | 0.00 | 86 | 1018.1 |
| 20260506161113 | 14 | 176 | 1.6 | 8.0 | 0.00 | 0.00 | 0.00 | 87 | 1018.0 |
| 20260506160003 | 14 | 188 | 3.2 | 14.5 | 0.00 | 0.00 | 0.00 | 87 | 1017.9 |
| 20260506155403 | 13 | 203 | 3.2 | 14.5 | 0.00 | 0.00 | 0.00 | 87 | 1017.7 |
| 20260506154503 | 13 | 186 | 4.8 | 12.9 | 0.00 | 0.00 | 0.00 | 88 | 1017.8 |
| 20260506153603 | 13 | 175 | 1.6 | 12.9 | 0.00 | 0.00 | 0.00 | 88 | 1017.2 |
| 20260506152703 | 13 | 183 | 1.6 | 4.8 | 0.00 | 0.00 | 0.00 | 88 | 1017.7 |
| 20260506151803 | 13 | 183 | 3.2 | 6.4 | 0.00 | 0.00 | 0.00 | 88 | 1018.1 |
| 20260506150903 | 13 | 183 | 3.2 | 6.4 | 0.00 | 0.00 | 0.00 | 88 | 1018.2 |
| 20260506150004 | 13 | 183 | 1.6 | 6.4 | 0.00 | 0.00 | 0.00 | 88 | 1018.1 |
| 20260506145614 | 13 | 183 | 1.6 | 6.4 | 0.00 | 0.00 | 0.00 | 88 | 1018.1 |
| 20260506144713 | 13 | 183 | 1.6 | 6.4 | 0.00 | 0.00 | 0.00 | 88 | 1018.0 |
| 20260506143603 | 13 | 183 | 3.2 | 4.8 | 0.00 | 0.00 | 0.00 | 87 | 1017.8 |
| 20260506142703 | 13 | 185 | 1.6 | 8.0 | 0.00 | 0.00 | 0.00 | 87 | 1017.7 |
| 20260506141803 | 13 | 154 | 1.6 | 8.0 | 0.00 | 0.00 | 0.00 | 87 | 1017.4 |
| 20260506140903 | 13 | 55 | 1.6 | 8.0 | 0.00 | 0.00 | 0.00 | 88 | 1017.1 |
| 20260506140003 | 13 | 54 | 0.0 | 6.4 | 0.00 | 0.00 | 0.00 | 88 | 1017.2 |
| 20260506135403 | 13 | 54 | 1.6 | 1.6 | 0.00 | 0.00 | 0.00 | 88 | 1017.1 |
| 20260506134504 | 13 | 54 | 0.0 | 3.2 | 0.00 | 0.00 | 0.00 | 88 | 1017.1 |
| 20260506133603 | 13 | 54 | 0.0 | 3.2 | 0.00 | 0.00 | 0.00 | 88 | 1017.0 |
| 20260506132703 | 13 | 54 | 0.0 | 4.8 | 0.00 | 0.00 | 0.00 | 88 | 1016.9 |
| 20260506131803 | 13 | 0 | 0.0 | 0.0 | 0.00 | 0.00 | 0.00 | 88 | 1016.9 |
| 20260506130903 | 13 | 0 | 0.0 | 0.0 | 0.00 | 0.00 | 0.00 | 88 | 1016.8 |
| 20260506130003 | 13 | 0 | 0.0 | 0.0 | 0.00 | 0.00 | 0.00 | 88 | 1016.6 |
| 20260506125403 | 13 | 0 | 0.0 | 0.0 | 0.00 | 0.00 | 0.00 | 88 | 1016.7 |
| 20260506124503 | 13 | 0 | 0.0 | 0.0 | 0.00 | 0.00 | 0.00 | 88 | 1016.7 |
| 20260506123603 | 13 | 0 | 0.0 | 0.0 | 0.00 | 0.00 | 0.00 | 89 | 1016.5 |
| 20260506122703 | 13 | 0 | 0.0 | 0.0 | 0.00 | 0.00 | 0.00 | 89 | 1016.5 |
| 20260506121803 | 13 | 0 | 0.0 | 0.0 | 0.00 | 0.00 | 0.00 | 89 | 1016.7 |
| 20260506120903 | 13 | 0 | 0.0 | 0.0 | 0.00 | 0.00 | 0.00 | 89 | 1016.6 |
| 20260506120003 | 13 | 0 | 0.0 | 0.0 | 0.00 | 0.00 | 0.00 | 89 | 1016.5 |
| 20260506115403 | 13 | 0 | 0.0 | 0.0 | 0.00 | 0.00 | 0.00 | 89 | 1016.5 |
| 20260506114503 | 13 | 54 | 1.6 | 3.2 | 0.00 | 0.00 | 0.00 | 89 | 1016.4 |
| 20260506113813 | 13 | 54 | 0.0 | 3.2 | 0.00 | 0.00 | 0.00 | 89 | 1016.3 |
| 20260506112703 | 13 | 0 | 0.0 | 0.0 | 0.00 | 0.00 | 0.00 | 89 | 1016.2 |
| 20260506111803 | 13 | 0 | 0.0 | 0.0 | 0.00 | 0.00 | 0.00 | 89 | 1016.1 |
| 20260506110903 | 13 | 0 | 0.0 | 0.0 | 0.00 | 0.00 | 0.00 | 89 | 1016.1 |
| 20260506110004 | 13 | 0 | 0.0 | 0.0 | 0.00 | 0.00 | 0.00 | 89 | 1015.9 |
| 20260506105403 | 13 | 0 | 0.0 | 0.0 | 0.00 | 0.00 | 0.00 | 89 | 1015.8 |
| 20260506104503 | 13 | 0 | 0.0 | 0.0 | 0.00 | 0.00 | 0.00 | 89 | 1015.7 |
| 20260506103603 | 13 | 0 | 0.0 | 0.0 | 0.00 | 0.00 | 0.00 | 89 | 1015.5 |
| 20260506102703 | 14 | 0 | 0.0 | 0.0 | 0.00 | 0.00 | 0.00 | 89 | 1015.5 |
| 20260506101803 | 14 | 0 | 0.0 | 0.0 | 0.00 | 0.00 | 0.00 | 89 | 1015.4 |
| 20260506101114 | 14 | 0 | 0.0 | 0.0 | 0.00 | 0.00 | 0.00 | 90 | 1015.2 |
| 20260506100214 | 14 | 0 | 0.0 | 0.0 | 0.00 | 0.00 | 0.00 | 90 | 1015.3 |